Location: Innsbruck
(47.2657°N, 11.3914°E)
Time: 23:18:46
(UTC+02:00)

Nauka - Pass Details

Date: 22 September 2021
Orbit: 417 x 423 km, 51.6° (Epoch: 16 October)

Event Time Altitude Azimuth Distance (km) Brightness Sun altitude
Rises 20:49:39 0° 268° (W) 2,361 ? -17.1°
Reaches altitude 10° 20:51:49 10° 276° (W) 1,499 ? -17.4°
Maximum altitude 20:55:03 43° 349° (N) 604 ? -18.0°
Enters shadow 20:56:16 29° 40° (NE) 797 ? -18.1°
